Weather in Marks

Russia / Saratov Oblast     51°42′47″N   46°44′24″E
temp.,
°C
wind,
m/s
gust,
m/s
humid.,
%
clouds,
%
prec.,
mm/h
press.,
hPa
HPBL,
m
15 may, sat
sat1501:00+20sse4114981 0.0 1018200
04:00+17se224798 0.0 101816
07:00+19ese27507 0.0 1019205
10:00+25sse58335 0.0 1018493
13:00+29s7102565 0.0 10181249
16:00+30s6102851 0.0 10172041
19:00+26se47415 0.0 1017129
22:00+21se411445 0.0 1016147
16 may, sun
sun1601:00+19sse4105357 0.0 1016149
04:00+17se22565 0.0 101711
07:00+19sse265785 0.0 1017156
10:00+25s35385 0.0 1018517
13:00+29s472654 0.0 10171578
16:00+31s592897 0.0 10163042
19:00+27s2242100 0.0 101511
22:00+23ese2246100 0.0 101611
17 may, mon
mon1701:00+20sse2253100 0.0 101618
04:00+18ene115093 0.0 101711
07:00+19e355296 0.0 1018113
10:00+26ese463660 0.0 1018539
13:00+30sse682384 0.0 10172137
16:00+30sse672583 0.0 10163082
19:00+26se4103981 0.0 1016216
22:00+21ese4839100 0.0 1016109
18 may, tue
tue1801:00+19e41042100 0.0 1016146
04:00+17e364842 0.0 101583
07:00+18ene37567 0.0 1015183
10:00+27ese58335 0.0 1015623
13:00+31sse8112218 0.0 10142222
16:00+32sse692318 0.0 10133597
19:00+27ese4737100 0.0 1013105
22:00+22ese5144177 0.0 1013229
19 may, wed
wed1901:00+21ese6163714 0.0 1012277
04:00+19e413425 0.0 1012211
07:00+20ese414524 0.0 1012381
10:00+28se712355 0.0 1011799
13:00+31sse9112642 0.0 10103057
16:00+30ssw61033100 0.0 10101681
19:00+26sw364497 0.0 1009152
22:00+20w34705 0.0 101158